Other Public Products
Issued by NWS Grand Forks, ND

Home | Current Version | Previous Version | Graphics & Text | Print | Product List | Glossary On
Versions: 1 2 3 4 5 6 7 8 9 10 11 12 13 14 15 16 17 18 19 20 21 22 23 24 25 26 27 28 29 30 31 32 33 34 35 36 37 38 39 40 41 42 43 44 45 46 47 48 49 50
000
FPUS83 KFGF 162131
OPUFGF
PRAIRIE TO PINES WEATHER ROUNDUP
NATIONAL WEATHER SERVICE EASTERN NORTH DAKOTA/GRAND FORKS ND
400 PM CDT WED APR 16 2014

 **SATELLITE DATA USED TO AUGMENT SKY COVER AT AUTOMATED STATIONS**
 *****  WEATHER ACROSS EASTERN NORTH DAKOTA  *****

CITY           SKY/WX    TMP DP  RH WIND       PRES   REMARKS
GRAND FORKS    MOSUNNY   41  14  33 NE18G28   30.12R
GRAND FORKS AF SUNNY     40  12  31 NE17G28   30.17R
GRAND CITY NWS   N/A     41 N/A N/A NE16        N/A
BUXTON           N/A     42  18  38 NE17        N/A
DEVILS LAKE    SUNNY     37  10  32 NE18G24   30.18R
FARGO          CLOUDY    36  23  59 NE16      30.10R
WAHPETON ARPT  CLOUDY    34  21  60 NE14G23   30.06S WCI  24
$$

 *****  WEATHER ACROSS CENTRAL AND WESTERN NORTH DAKOTA  *****

CITY           SKY/WX    TMP DP  RH WIND       PRES   REMARKS
JAMESTOWN      PTSUNNY   38  19  46 NE22G28   30.10R
BISMARCK       CLOUDY    34  18  52 NE14      30.15R WCI  25
MINOT          CLOUDY    33  18  53 NE10      30.20R WCI  25
MINOT AFB      CLOUDY    33  20  59 NE12      30.21R WCI  24
GARRISON         N/A     29  20  69 NE12G17   30.18R WCI  19
WILLISTON      FLURRIES  28  22  78 E17       30.20R WCI  16
DICKINSON      CLOUDY    29  21  72 NE10      30.10R WCI  20
HETTINGER      CLOUDY    32  22  66 NE9       30.09R WCI  24
$$

 *****  OTHER OBSERVATIONS NORTHEAST NORTH DAKOTA  *****

CITY           SKY/WX    TMP DP  RH WIND       PRES   REMARKS
WALHALLA         N/A     36  10  35 N16G23    30.25S
LANGDON        FAIR      34  10  37 NE20G26   30.20R WCI  22
CAVALIER       FAIR      37  10  32 N12G21    30.24R
GRAFTON        FAIR      37  10  32 N20       30.21R
CANDO          MOCLDY    37   9  30 E14G23    30.21R
FORT TOTTEN      N/A     38  11  32 NE9       29.95S
ROLLA          FAIR      32  10  40 NE16      30.22S WCI  21
RUGBY          FAIR      34  16  47 NE15G22   30.20R WCI  24
 ***** THE ABOVE OBSERVATIONS ARE NON NWS ARE NOT QUALITY
        CONTROLLED AND MAY MIS-REPORT RAIN FOR SNOW...
$$

 *****  OTHER OBSERVATIONS SOUTHEAST NORTH DAKOTA *****

CITY           SKY/WX    TMP DP  RH WIND       PRES   REMARKS
COOPERSTOWN    FAIR      37  18  44 NE17G25   30.13R
VALLEY CITY    NOT AVBL
OAKES          CLOUDY    34  23  64 N25       30.07R WCI  21
GWINNER        CLOUDY    36  27  69 NE21G26   30.08R
SHEYENNE NWR     N/A     35  23  62 NE13      29.95
BUFFALO          N/A     38  17  42 NE18        N/A
WYNDMERE       NOT AVBL
 ***** THE ABOVE OBSERVATIONS ARE NON NWS ARE NOT QUALITY
       CONTROLLED AND MAY MIS-REPORT RAIN FOR SNOW...
$$

  *****  WEATHER ACROSS NORTHERN MINNESOTA  *****

CITY           SKY/WX    TMP DP  RH WIND       PRES   REMARKS
FLAG ISLAND    SUNNY     32   9  37 N14       30.22F WCI  22
WARROAD        SUNNY     34  10  37 NE12G20   30.23R
ROSEAU         SUNNY     36   5  27 E17       30.22R
HALLOCK        CLOUDY    37   7  28 NE12      30.22R
THF RVR FALLS  MOSUNNY   39   7  26 NE20      30.16R
HALSTAD          N/A     40  19  44 E17         N/A
FOSSTON        PTSUNNY   39  16  38 NE13      30.11S
BAUDETTE       MOSUNNY   37   6  27 NE15      30.19R
WASKISH        CLOUDY    39  10  30 NE13G18   30.15R
CROOKSTON      CLOUDY    41  10  28 NE15G23   30.15S
$$
  *****  WEATHER ACROSS CENTRAL AND WEST MINNESOTA  *****

CITY           SKY/WX    TMP DP  RH WIND       PRES   REMARKS
BEMIDJI        CLOUDY    36  16  44 E16       30.11S
PARK RAPIDS    CLOUDY    29  20  69 NE22G30   30.06S WCI  15
WADENA         LGT SNOW  28  23  80 NE18G24   30.03R WCI  16
DETROIT LAKES  CLOUDY    32  23  69 E18       30.08R WCI  20
MOORHEAD       PTSUNNY   37  27  65 NE20      30.10S
FERGUS FALLS   CLOUDY    32  21  64 NE17G25   30.03R WCI  21
ELBOW LAKE     CLOUDY    30  25  80 NE18      30.01R WCI  18
MORRIS MN      MIX PCPN  30  27  86 NE18G25   29.98R WCI  18
STAPLES        LGT SNOW  28  25  86 NE13G20   30.03R WCI  18
WHEATON        CLOUDY    36  28  75 NE20G25   30.05R
$$
  *****  WEATHER ELSEWHERE ACROSS MINNESOTA  *****

CITY           SKY/WX    TMP DP  RH WIND       PRES   REMARKS
DULUTH         SNOW      26  22  84 E22G28    30.09F VSB 1/2 WCI  12
INTRNTL FALLS  PTSUNNY   35   3  26 NE12      30.19R
ELY            CLOUDY    27  16  63 E13       30.18R WCI  16
CLOQUET        SNOW      27  25  93 NE18G28   30.08R VSB 1/2 WCI  13
BRAINERD       LGT SNOW  32  24  72 NE16      30.04R VSB 3/4 WCI  21
HIBBING        LGT SNOW  28  22  78 NE14      30.13F VSB 1   WCI  17
ALEXANDRIA     LGT SNOW  28  25  86 NE14G25   29.98R FOG     WCI  17
SAINT CLOUD    SNOW      29  26  89 NE14      29.94S VSB 1/4 WCI  18
MINNEAPOLIS    LGT SNOW  33  32  96 NE12G24   29.89S VSB 3/4 WCI  24
$$

  *****  WEATHER ACROSS SOUTH DAKOTA  *****

CITY           SKY/WX    TMP DP  RH WIND       PRES   REMARKS
SIOUX FALLS    SNOW      33  32  96 N22G28    29.78R VSB 1/2 WCI  21
BROOKINGS      NOT AVBL
WATERTOWN      CLOUDY    28  24  85 NE22      29.93R FOG     WCI  14
HURON          CLOUDY    33  26  75 N17G30    29.98R WCI  22
SISSETON         N/A     31  26  82 NE18      30.02R WCI  19
ABERDEEN       CLOUDY    32  24  72 NE23G30   30.04R WCI  19
MITCHELL       CLOUDY    34  27  75 N26G32    29.93R WCI  21
PIERRE         CLOUDY    36  26  67 N18       30.04R
MOBRIDGE       MOSUNNY   38  23  55 NE17G24   30.05R
RAPID CITY     PTSUNNY   47  28  47 N16G22    30.00R
$$

  *****  SOME WEATHER IN NEARBY STATES *****

CITY           SKY/WX    TMP DP  RH WIND       PRES   REMARKS
GLASGOW MT     CLOUDY    36  21  54 E10       30.12R
GREAT FALLS MT CLOUDY    44  29  55 W5        29.97S
CHEYENNE WY    MOSUNNY   42  27  55 N15G25    29.95F
SCOTTSBLUFF NE PTSUNNY   52  24  33 N22G31    29.95S
OMAHA NE       PTSUNNY   68  27  21 SW15G33   29.67F
DES MOINES IA  PTSUNNY   63  30  28 S17G40    29.79R
DAVENPORT IA   MOSUNNY   57  27  31 S29G35    30.00F
CHICAGO IL     PTSUNNY   52  25  35 SE21G26   30.16F
EAU CLAIRE WI  CLOUDY    43  29  57 NE14      29.92F
LA CROSSE WI   CLOUDY    54  28  36 SE18G28   29.89F
$$

  *****  SOME NATIONAL WEATHER *****

CITY           SKY/WX    TMP DP  RH WIND       PRES   REMARKS
LA GUARDIA NY  MOSUNNY   47  18  31 N10G17    30.41R
RALEIGH NC     SUNNY     54  25  32 N8        30.35F
ATLANTA GA     SUNNY     60  27  28 E9        30.22F
NEW ORLEANS LA MOSUNNY   63  41  44 NE14      30.13F
OKLAHOMA CITY  MOSUNNY   69  28  21 S23G35    29.89F
ALBUQUERQUE NM CLOUDY    72   6   7 NE9       29.82F
SALT LAKE CITY MOSUNNY   56  12  17 NW12G21   30.00F
LOS ANGELES CA SUNNY     64  52  64 W14       29.83F
BOISE ID       SUNNY     58  18  21 SW6       30.02F
SEATTLE WA     LGT RAIN  51  48  89 S10       30.06F
$$

*** WEATHER ACROSS MANITOBA...SASKATCHEWAN AND ONTARIO ***
                ***ONTARIO***

CITY           SKY/WX    TMP DP  RH WIND       PRES   REMARKS
GERALDTON      MOSUNNY   30   1  29 SW6       30.26R WCI  24
THUNDER BAY    PTSUNNY   30  16  55 E14       30.28F WCI  20
SIOUX LOOKOUT  PTSUNNY   30  -4  22 NW7       30.25S WCI  23
TORONTO        PTSUNNY   37  21  52 S12       30.46S
BIG TROUT LK   SUNNY     16   0  48 NW13G18   30.31S WCI   2
PICKLE LAKE    MOSUNNY   27   1  33 NW5       30.26S WCI  21
DRYDEN         SUNNY     32   0  25 NE7       30.23R
KENORA         MOSUNNY   32   3  29 E8        30.24R WCI  25
$$
                *** MANITOBA***

CITY           SKY/WX    TMP DP  RH WIND       PRES   REMARKS
BRANDON        PTSUNNY   28  10  47 E15G24    30.32R WCI  17
DAUPHIN        SUNNY     28   7  40 E12       30.37S WCI  18
ISLAND LAKE    MOSUNNY   25  12  58 N7        30.36F WCI  17
PILOT MOUND      N/A     30   9  40 NE15G23     N/A  WCI  19
THE PAS        SUNNY     25   3  39 E8        30.42F WCI  16
THOMPSON       SUNNY     23   7  50 NW10      30.40F WCI  12
WINNIPEG       MOSUNNY   30  10  43 NE17G24   30.31S WCI  18
LYNN LAKE      SUNNY     23   0  36 NW7       30.40F WCI  15
CHURCHILL      PTSUNNY   18   7  62 NW14G21   30.28F WCI   4
GILLAM         MOSUNNY   19   5  53 W13       30.36F WCI   7
$$
                ***SASKATCHEWAN***

CITY           SKY/WX    TMP DP  RH WIND       PRES   REMARKS
ESTEVAN        LGT SNOW  28  21  74 SE13      30.25R WCI  18
KINDERSLEY     FLURRIES  28  23  80 E16       30.15S WCI  17
LLOYDMINSTER   FLURRIES  28  19  69 SE12G22   30.19R WCI  18
PRINCE ALBERT  MOSUNNY   28   7  40 SE13      30.35S WCI  18
REGINA         FLURRIES  30  18  59 SE13      30.25S WCI  20



USA.gov is the U.S. government's official web portal to all federal, state and local government web resources and services.